DW4273 Weather Reports


Display with metric or nautical units.
time (UTC)temp
F
wind
direction
speed
MPH
gust
MPH
rain 1hr
in
rain 24hr
in
rain mn
in
humidity
%
barometer
mb
20260504234516 70 225 8.0 15.0 0.00 0.00 0.00 53 1001.5
20260504233517 70 203 7.0 14.0 0.00 0.00 0.00 52 1001.3
20260504232517 71 203 7.0 14.0 0.00 0.00 0.00 52 1001.4
20260504231557 71 203 11.0 17.0 0.00 0.00 0.00 51 1001.3
20260504230517 71 203 9.0 22.0 0.00 0.00 0.00 52 1001.6
20260504225537 71 225 12.0 21.0 0.00 0.00 0.00 52 1001.7
20260504224537 71 225 13.0 23.0 0.00 0.00 0.00 51 1001.8
20260504223517 72 203 10.0 16.0 0.00 0.00 0.00 51 1001.8
20260504222517 72 225 10.0 17.0 0.00 0.00 0.00 51 1001.9
20260504221516 72 203 14.0 23.0 0.00 0.00 0.00 51 1001.9
20260504220537 71 203 11.0 21.0 0.00 0.00 0.00 52 1002.1
20260504215516 72 203 11.0 21.0 0.00 0.00 0.00 52 1002.2
20260504214517 72 203 10.0 21.0 0.00 0.00 0.00 51 1002.0
20260504213517 71 203 12.0 18.0 0.00 0.00 0.00 54 1002.0
20260504212517 71 203 10.0 23.0 0.00 0.00 0.00 53 1002.1
20260504211517 71 203 11.0 17.0 0.00 0.00 0.00 52 1002.1
20260504210537 72 203 9.0 15.0 0.00 0.00 0.00 53 1002.3
20260504205517 71 203 10.0 16.0 0.00 0.00 0.00 54 1002.4
20260504204517 72 203 11.0 20.0 0.00 0.00 0.00 53 1002.4
20260504203517 72 203 11.0 18.0 0.00 0.00 0.00 51 1002.6
20260504202537 72 225 11.0 19.0 0.00 0.00 0.00 53 1002.6
20260504201516 72 203 10.0 18.0 0.00 0.00 0.00 52 1002.8
20260504200617 71 225 11.0 22.0 0.00 0.00 0.00 51 1002.9
20260504195517 71 225 10.0 17.0 0.00 0.00 0.00 53 1003.0
20260504194517 71 180 11.0 19.0 0.00 0.00 0.00 51 1003.1
20260504193517 71 203 8.0 16.0 0.00 0.00 0.00 51 1003.3
20260504192517 71 203 9.0 17.0 0.00 0.00 0.00 52 1003.4
20260504191517 71 203 10.0 17.0 0.00 0.00 0.00 52 1003.6
20260504190517 70 225 8.0 18.0 0.00 0.00 0.00 53 1003.6
20260504185517 70 203 10.0 19.0 0.00 0.00 0.00 54 1003.9
20260504184537 70 203 9.0 18.0 0.00 0.00 0.00 53 1004.0
20260504183517 69 180 10.0 18.0 0.00 0.00 0.00 54 1004.0
20260504182517 69 203 10.0 16.0 0.00 0.00 0.00 54 1004.1
20260504181517 69 203 11.0 20.0 0.00 0.00 0.00 54 1004.1
20260504180517 69 180 10.0 17.0 0.00 0.00 0.00 56 1004.2
20260504175537 69 203 11.0 20.0 0.00 0.00 0.00 54 1004.2
20260504174517 69 225 10.0 18.0 0.00 0.00 0.00 53 1004.3
20260504173517 68 203 9.0 17.0 0.00 0.00 0.00 53 1004.3
20260504172617 68 203 9.0 14.0 0.00 0.00 0.00 53 1004.4
20260504171517 68 180 8.0 15.0 0.00 0.00 0.00 52 1004.5
20260504170517 68 203 10.0 16.0 0.00 0.00 0.00 54 1004.7
20260504150517 63 203 7.0 11.0 0.00 0.00 0.00 55 1005.5
20260504140537 60 203 7.0 12.0 0.00 0.00 0.00 58 1005.8
20260504130537 56 225 8.0 14.0 0.00 0.00 0.00 62 1006.1
20260504110558 50 203 7.0 12.0 0.00 0.00 0.00 68 1006.0
20260504100537 50 203 7.0 13.0 0.00 0.00 0.00 67 1006.3
20260504081517 51 203 9.0 14.0 0.00 0.00 0.00 62 1007.1
20260504080517 51 203 9.0 14.0 0.00 0.00 0.00 62 1007.2
20260504050535 49 203 6.0 9.0 0.00 0.00 0.00 69 1009.4
20260504045515 48 203 6.0 9.0 0.00 0.00 0.00 69 1009.4
20260504044535 49 203 4.0 9.0 0.00 0.00 0.00 70 1009.5
20260504043515 49 203 5.0 8.0 0.00 0.00 0.00 70 1009.6
20260504042515 49 203 4.0 8.0 0.00 0.00 0.00 69 1009.8
20260504041515 49 180 2.0 4.0 0.00 0.00 0.00 68 1009.8
20260504040616 49 180 3.0 5.0 0.00 0.00 0.00 67 1009.8
20260504035517 50 180 4.0 7.0 0.00 0.00 0.00 67 1009.9
20260504034537 50 180 3.0 5.0 0.00 0.00 0.00 67 1010.1
20260504033517 50 180 3.0 6.0 0.00 0.00 0.00 66 1010.2
20260504032517 50 180 4.0 7.0 0.00 0.00 0.00 66 1010.1
20260504031517 51 180 5.0 8.0 0.00 0.00 0.00 66 1010.2
20260504030517 51 180 4.0 8.0 0.00 0.00 0.00 65 1010.2
20260504025517 51 203 5.0 9.0 0.00 0.00 0.00 64 1010.2
20260504024517 51 203 5.0 8.0 0.00 0.00 0.00 64 1010.3
20260504023517 51 203 6.0 8.0 0.00 0.00 0.00 64 1010.4
20260504022517 51 203 6.0 12.0 0.00 0.00 0.00 63 1010.5
20260504021517 51 203 6.0 10.0 0.00 0.00 0.00 62 1010.4
20260504020517 51 203 6.0 10.0 0.00 0.00 0.00 63 1010.6
20260504015517 51 203 5.0 9.0 0.00 0.00 0.00 63 1010.6
20260504014517 51 225 8.0 13.0 0.00 0.00 0.00 62 1010.6
20260504013537 51 225 8.0 15.0 0.00 0.00 0.00 62 1010.6
20260504012517 51 225 9.0 15.0 0.00 0.00 0.00 64 1010.6
20260504011517 51 225 9.0 15.0 0.00 0.00 0.00 63 1010.4
20260504010537 52 248 12.0 20.0 0.00 0.00 0.00 61 1010.4
20260504005517 53 248 11.0 16.0 0.00 0.00 0.00 55 1010.4
20260504004537 54 203 3.0 8.0 0.00 0.00 0.00 49 1009.8
20260504003517 54 225 4.0 8.0 0.00 0.00 0.00 48 1009.7
20260504002517 55 203 3.0 5.0 0.00 0.00 0.00 48 1009.8
20260504001517 56 203 6.0 9.0 0.00 0.00 0.00 45 1009.7
20260504000517 56 225 9.0 17.0 0.00 0.00 0.00 45 1009.8
20260503235517 57 225 8.0 14.0 0.00 0.00 0.00 45 1009.8